EW5659 Weather Reports


time (UTC)temp
F
wind
direction
speed
knots
gust
knots
rain 1hr
in
rain 24hr
in
rain mn
in
humidity
%
barometer
mb
20260510153038 55 360 3.5 13.0 0.00 0.00 0.00 61 1016.2
20260510152515 55 360 5.2 13.0 0.00 0.00 0.00 60 1016.3
20260510152013 55 360 5.2 11.3 0.00 0.00 0.00 59 1016.4
20260510151531 55 360 3.5 11.3 0.00 0.00 0.00 58 1016.2
20260510151015 55 360 2.6 11.3 0.00 0.00 0.00 60 1016.4
20260510150515 54 360 5.2 11.3 0.00 0.00 0.00 60 1016.4
20260510150030 55 360 6.1 12.2 0.00 0.00 0.00 61 1016.4
20260510145514 55 360 5.2 12.2 0.00 0.00 0.00 60 1016.4
20260510145014 56 360 6.1 12.2 0.00 0.00 0.00 59 1016.4
20260510144531 55 360 4.3 11.3 0.00 0.00 0.00 60 1016.4
20260510144014 55 360 4.3 11.3 0.00 0.00 0.00 61 1016.6
20260510143516 55 360 4.3 13.0 0.00 0.00 0.00 61 1016.6
20260510143036 55 360 7.0 13.0 0.00 0.00 0.00 61 1016.6
20260510142514 55 31 4.3 13.9 0.00 0.00 0.00 61 1016.7
20260510142016 55 9 4.3 13.9 0.00 0.00 0.00 61 1016.7
20260510141533 56 17 4.3 13.0 0.00 0.00 0.00 61 1016.7
20260510141014 56 35 5.2 13.0 0.00 0.00 0.00 61 1016.8
20260510140514 55 360 3.5 11.3 0.00 0.00 0.00 62 1016.8
20260510140029 55 360 3.5 11.3 0.00 0.00 0.00 63 1017.0
20260510135514 55 360 4.3 9.6 0.00 0.00 0.00 62 1017.0
20260510135013 55 360 3.5 11.3 0.00 0.00 0.00 62 1017.0
20260510134530 55 360 3.5 13.9 0.00 0.00 0.00 62 1016.8
20260510134012 55 360 4.3 13.9 0.00 0.00 0.00 62 1016.9
20260510133512 54 360 5.2 13.0 0.00 0.00 0.00 63 1017.0
20260510133038 54 360 5.2 13.0 0.00 0.00 0.00 64 1017.0
20260510132514 54 360 5.2 13.0 0.00 0.00 0.00 64 1017.1
20260510132010 54 360 6.1 13.0 0.00 0.00 0.00 65 1017.1
20260510131529 54 360 6.1 13.0 0.00 0.00 0.00 64 1017.1
20260510131015 54 360 3.5 9.6 0.00 0.00 0.00 65 1017.1
20260510130511 54 360 4.3 9.6 0.00 0.00 0.00 65 1017.1
20260510130031 54 360 4.3 9.6 0.00 0.00 0.00 65 1017.3
20260510125513 54 360 2.6 10.4 0.00 0.00 0.00 67 1017.3
20260510125011 53 360 4.3 11.3 0.00 0.00 0.00 67 1017.3
20260510124530 53 360 5.2 12.2 0.00 0.00 0.00 67 1017.4
20260510124016 53 360 4.3 12.2 0.00 0.00 0.00 67 1017.5
20260510123514 53 360 5.2 12.2 0.00 0.00 0.00 67 1017.5
20260510123032 53 360 4.3 11.3 0.00 0.00 0.00 67 1017.5
20260510122519 53 360 4.3 11.3 0.00 0.00 0.00 68 1017.7
20260510122011 53 360 6.1 12.2 0.00 0.00 0.00 68 1017.8
20260510121531 53 360 7.0 13.0 0.00 0.00 0.00 67 1017.8
20260510121011 54 360 5.2 13.0 0.00 0.00 0.00 67 1017.7
20260510120509 54 360 6.1 11.3 0.00 0.00 0.00 67 1017.8
20260510120033 54 360 5.2 10.4 0.00 0.00 0.00 67 1017.8
20260510115511 54 360 6.1 10.4 0.00 0.00 0.00 68 1017.8
20260510115011 54 360 5.2 14.8 0.00 0.00 0.00 68 1018.0
20260510114534 54 360 4.3 14.8 0.00 0.00 0.00 68 1017.9
20260510114010 54 360 6.1 11.3 0.00 0.00 0.00 68 1017.9
20260510113513 54 360 5.2 11.3 0.00 0.00 0.00 70 1018.0
20260510113038 54 360 4.3 11.3 0.00 0.00 0.00 71 1018.1
20260510112513 53 360 4.3 11.3 0.00 0.00 0.00 70 1018.1
20260510112011 53 360 3.5 7.8 0.00 0.00 0.00 72 1018.1
20260510111530 53 360 3.5 12.2 0.00 0.00 0.00 73 1018.2
20260510111011 53 360 4.3 12.2 0.00 0.00 0.00 74 1018.3
20260510110513 53 360 3.5 12.2 0.00 0.00 0.00 74 1018.3
20260510110029 53 360 3.5 12.2 0.00 0.00 0.00 73 1018.4
20260510105513 53 360 5.2 12.2 0.00 0.00 0.00 73 1018.5
20260510105015 53 360 3.5 12.2 0.00 0.00 0.00 73 1018.4
20260510104531 53 360 5.2 12.2 0.00 0.00 0.00 73 1018.5
20260510104013 53 360 4.3 11.3 0.00 0.00 0.00 72 1018.5
20260510103515 54 360 4.3 13.0 0.00 0.00 0.00 72 1018.4
20260510103029 54 360 4.3 13.0 0.00 0.00 0.00 71 1018.4
20260510102512 54 360 5.2 12.2 0.00 0.00 0.00 72 1018.5
20260510102012 54 360 5.2 12.2 0.00 0.00 0.00 73 1018.5
20260510101530 53 360 5.2 13.0 0.00 0.00 0.00 74 1018.4
20260510101013 53 360 6.1 13.9 0.00 0.00 0.00 74 1018.5
20260510100517 53 360 6.1 13.9 0.00 0.00 0.00 74 1018.5
20260510100030 53 360 6.1 13.9 0.00 0.00 0.00 74 1018.5
20260510095511 53 360 3.5 10.4 0.00 0.00 0.00 73 1018.6
20260510095012 54 360 5.2 12.2 0.00 0.00 0.00 73 1018.5
20260510094531 54 360 3.5 12.2 0.00 0.00 0.00 73 1018.4
20260510094012 53 360 4.3 14.8 0.00 0.00 0.00 74 1018.6
20260510093512 53 360 5.2 14.8 0.00 0.00 0.00 74 1018.6
20260510093032 52 360 3.5 10.4 0.00 0.00 0.00 76 1018.7
20260510092517 52 360 3.5 11.3 0.00 0.00 0.00 77 1018.8
20260510092015 52 360 4.3 12.2 0.00 0.00 0.00 77 1018.8
20260510091529 52 360 4.3 12.2 0.00 0.00 0.00 76 1018.9
20260510091014 52 360 3.5 9.6 0.00 0.00 0.00 76 1019.0
20260510090517 52 360 2.6 9.6 0.00 0.00 0.00 76 1019.1
20260510090032 52 360 2.6 9.6 0.00 0.00 0.00 76 1019.0
20260510085512 52 360 1.7 12.2 0.00 0.00 0.00 76 1018.9
20260510085014 52 360 2.6 12.2 0.00 0.00 0.00 76 1018.9
20260510084533 52 360 3.5 12.2 0.00 0.00 0.00 76 1018.9
20260510084016 52 360 3.5 11.3 0.00 0.00 0.00 77 1019.1
20260510083515 52 360 4.3 11.3 0.00 0.00 0.00 77 1019.0
20260510083029 52 360 6.1 11.3 0.00 0.00 0.00 76 1019.1
20260510082513 52 360 3.5 9.6 0.00 0.00 0.00 77 1019.1
20260510082015 52 360 3.5 11.3 0.00 0.00 0.00 78 1019.1
20260510081539 52 360 4.3 11.3 0.00 0.00 0.00 78 1019.1
20260510081014 51 360 5.2 11.3 0.00 0.00 0.00 78 1019.1
20260510080515 52 360 4.3 12.2 0.00 0.00 0.00 78 1019.0
20260510080029 52 360 5.2 12.2 0.00 0.00 0.00 78 1019.2
20260510075513 52 360 4.3 11.3 0.00 0.00 0.00 79 1019.1
20260510075013 52 360 5.2 11.3 0.00 0.00 0.00 79 1018.9
20260510074530 51 360 5.2 11.3 0.00 0.00 0.00 80 1018.9
20260510074016 51 360 5.2 11.3 0.00 0.00 0.00 80 1019.1
20260510073513 51 360 3.5 12.2 0.00 0.00 0.00 81 1019.1
20260510073034 51 360 3.5 12.2 0.00 0.00 0.00 81 1019.1
20260510072513 51 360 4.3 12.2 0.00 0.00 0.00 82 1019.2
20260510072016 51 360 4.3 10.4 0.00 0.00 0.00 82 1019.1
20260510071531 51 360 3.5 13.0 0.00 0.00 0.00 83 1019.1
20260510071013 50 360 5.2 13.0 0.00 0.00 0.00 83 1018.9
20260510070514 50 360 4.3 12.2 0.00 0.00 0.00 85 1018.9
20260510070031 50 360 5.2 12.2 0.00 0.00 0.00 85 1018.9
20260510065514 50 360 4.3 10.4 0.00 0.00 0.00 85 1018.8
20260510065014 50 360 4.3 11.3 0.00 0.00 0.00 86 1018.8
20260510064540 50 360 5.2 11.3 0.00 0.00 0.00 86 1018.8
20260510064013 50 360 5.2 13.0 0.00 0.00 0.00 86 1018.8
20260510063512 50 360 6.1 13.0 0.00 0.00 0.00 86 1018.8
20260510063038 49 360 6.1 13.0 0.00 0.00 0.00 87 1018.7
20260510062514 49 360 5.2 12.2 0.00 0.00 0.00 87 1018.8
20260510062013 49 360 4.3 13.0 0.00 0.00 0.00 88 1018.8
20260510061530 49 360 4.3 13.0 0.00 0.00 0.00 88 1018.7
20260510061011 49 360 5.2 11.3 0.00 0.00 0.00 88 1018.7
20260510060512 49 360 5.2 10.4 0.00 0.00 0.00 89 1018.7
20260510060030 49 360 6.1 10.4 0.00 0.00 0.00 89 1018.7
20260510055515 48 360 4.3 9.6 0.00 0.00 0.00 89 1018.6
20260510055014 48 360 3.5 9.6 0.00 0.00 0.00 89 1018.8
20260510054530 48 360 3.5 8.7 0.00 0.00 0.00 89 1018.7
20260510054014 48 360 3.5 8.7 0.00 0.00 0.00 90 1018.6
20260510053514 48 360 3.5 7.8 0.00 0.00 0.00 90 1018.7
20260510053030 48 360 2.6 8.7 0.00 0.00 0.00 90 1018.7
20260510052512 48 360 3.5 8.7 0.00 0.00 0.00 90 1018.6
20260510052012 48 360 4.3 7.8 0.00 0.00 0.00 90 1018.7
20260510051532 48 360 2.6 7.0 0.00 0.00 0.00 90 1018.8
20260510051013 48 360 3.5 7.0 0.00 0.00 0.00 90 1018.7
20260510050512 47 360 3.5 7.8 0.00 0.00 0.00 90 1018.8
20260510050030 47 360 2.6 7.8 0.00 0.00 0.00 90 1018.9
20260510045513 47 360 2.6 7.0 0.00 0.00 0.00 90 1018.8
20260510045015 47 360 1.7 7.0 0.00 0.00 0.00 90 1018.7
20260510044544 47 360 2.6 5.2 0.00 0.00 0.00 90 1018.7
20260510044015 47 360 2.6 7.0 0.00 0.00 0.00 90 1018.7
20260510043514 47 360 2.6 7.0 0.00 0.00 0.00 90 1018.6
20260510043035 47 360 3.5 7.0 0.00 0.00 0.00 90 1018.6
20260510042512 47 360 3.5 7.0 0.00 0.00 0.00 90 1018.6
20260510042013 47 360 1.7 7.0 0.00 0.00 0.00 89 1018.6
20260510041532 47 360 2.6 7.0 0.00 0.00 0.00 89 1018.5
20260510041013 47 360 1.7 7.0 0.00 0.00 0.00 89 1018.6
20260510040513 47 360 2.6 5.2 0.00 0.00 0.00 89 1018.6
20260510040031 47 360 1.7 5.2 0.00 0.00 0.00 89 1018.7
20260510035513 47 360 2.6 7.8 0.00 0.00 0.00 89 1018.6
20260510035018 47 360 3.5 7.8 0.00 0.00 0.00 89 1018.7
20260510034536 47 360 4.3 7.8 0.00 0.00 0.00 88 1018.8
20260510034014 47 360 3.5 7.8 0.00 0.00 0.00 88 1018.8
20260510033514 47 360 3.5 7.8 0.00 0.00 0.00 88 1018.9
20260510033031 48 360 2.6 7.8 0.00 0.00 0.00 88 1018.9
20260510032512 48 360 2.6 5.2 0.00 0.00 0.00 88 1019.0
20260510032015 48 360 2.6 5.2 0.00 0.00 0.00 88 1019.1
20260510031532 48 360 2.6 7.8 0.00 0.00 0.00 87 1019.1
20260510031013 48 360 3.5 8.7 0.00 0.00 0.00 87 1018.9
20260510030517 48 360 4.3 10.4 0.00 0.00 0.00 87 1018.9
20260510030030 49 360 5.2 10.4 0.00 0.00 0.00 87 1018.9
20260510025513 49 360 5.2 12.2 0.00 0.00 0.00 87 1018.9
20260510025014 49 360 5.2 13.0 0.00 0.00 0.00 87 1019.0
20260510024531 49 360 5.2 13.0 0.00 0.00 0.00 87 1018.9
20260510024014 49 360 5.2 10.4 0.00 0.00 0.00 87 1018.9
20260510023514 49 360 5.2 10.4 0.00 0.00 0.00 87 1019.0
20260510023032 49 360 4.3 10.4 0.00 0.00 0.00 87 1019.0
20260510022513 49 360 2.6 9.6 0.00 0.00 0.00 87 1019.0
20260510022012 49 360 4.3 9.6 0.00 0.00 0.00 87 1019.2
20260510021536 49 360 3.5 9.6 0.00 0.00 0.00 87 1019.2
20260510021015 49 360 3.5 8.7 0.00 0.00 0.00 87 1019.2
20260510020514 49 360 4.3 7.8 0.00 0.00 0.00 87 1019.2
20260510020030 49 360 3.5 8.7 0.00 0.00 0.00 87 1019.1
20260510015513 49 360 3.5 8.7 0.00 0.00 0.00 87 1019.2
20260510015015 49 360 4.3 9.6 0.00 0.00 0.00 87 1019.1
20260510014532 49 360 4.3 9.6 0.00 0.00 0.00 87 1019.1
20260510014013 49 360 3.5 9.6 0.00 0.00 0.00 87 1019.0
20260510013515 49 360 3.5 9.6 0.00 0.00 0.00 87 1019.1
20260510013029 49 360 4.3 11.3 0.00 0.00 0.00 87 1018.9
20260510012515 49 360 3.5 11.3 0.00 0.00 0.00 87 1019.0
20260510012014 49 360 4.3 11.3 0.00 0.00 0.00 88 1018.9
20260510011531 49 360 6.1 11.3 0.00 0.00 0.00 88 1019.0
20260510011013 49 360 4.3 9.6 0.00 0.00 0.00 88 1019.1
20260510010514 49 360 3.5 8.7 0.00 0.00 0.00 88 1019.0
20260510010031 49 360 3.5 7.8 0.00 0.00 0.00 87 1019.1
20260510005512 49 360 3.5 8.7 0.00 0.00 0.00 87 1019.2
20260510005012 49 360 3.5 9.6 0.00 0.00 0.00 87 1019.3
20260510004531 49 360 3.5 9.6 0.00 0.00 0.00 87 1019.3
20260510004014 48 360 3.5 9.6 0.00 0.00 0.00 87 1019.2
20260510003514 48 360 2.6 7.8 0.00 0.00 0.00 86 1019.3
20260510003031 47 360 3.5 7.8 0.00 0.00 0.00 85 1019.2
20260510002511 47 360 2.6 7.0 0.00 0.00 0.00 85 1019.3
20260510002013 47 360 2.6 5.2 0.00 0.00 0.00 84 1019.4
20260510001532 47 360 1.7 4.3 0.00 0.00 0.00 83 1019.5
20260510001015 47 360 1.7 4.3 0.00 0.00 0.00 82 1019.5
20260510000514 47 360 1.7 4.3 0.00 0.00 0.00 82 1019.4
20260510000029 47 360 2.6 4.3 0.00 0.00 0.00 81 1019.4
20260509235512 47 360 1.7 5.2 0.00 0.00 0.00 81 1019.5
20260509235012 48 360 1.7 7.0 0.00 0.00 0.00 82 1019.5
20260509234535 48 360 1.7 7.0 0.00 0.00 0.00 82 1019.5
20260509234014 48 360 1.7 4.3 0.00 0.00 0.00 83 1019.5
20260509233512 48 360 1.7 4.3 0.00 0.00 0.00 83 1019.5
20260509233030 48 360 2.6 4.3 0.00 0.00 0.00 82 1019.5
20260509232514 47 360 2.6 3.5 0.00 0.00 0.00 81 1019.4
20260509232014 47 360 1.7 4.3 0.00 0.00 0.00 81 1019.4
20260509231531 47 360 1.7 4.3 0.00 0.00 0.00 80 1019.6
20260509231011 47 360 1.7 3.5 0.00 0.00 0.00 79 1019.6
20260509230514 47 360 1.7 3.5 0.00 0.00 0.00 78 1019.6
20260509230032 47 360 1.7 3.5 0.00 0.00 0.00 77 1019.5
20260509225514 47 360 1.7 3.5 0.00 0.00 0.00 76 1019.6
20260509225012 48 0 0.0 0.0 0.00 0.00 0.00 75 1019.6
20260509224532 48 0 0.0 1.7 0.00 0.00 0.00 75 1019.7
20260509224014 49 0 0.0 1.7 0.00 0.00 0.00 75 1019.7
20260509223511 49 360 0.0 2.6 0.00 0.00 0.00 74 1019.7
20260509223031 49 0 0.0 3.5 0.00 0.00 0.00 74 1019.6
20260509222514 49 360 0.9 3.5 0.00 0.00 0.00 74 1019.6
20260509222014 50 360 0.9 3.5 0.00 0.00 0.00 73 1019.4
20260509221532 50 360 0.9 3.5 0.00 0.00 0.00 73 1019.4
20260509221014 50 360 0.9 4.3 0.00 0.00 0.00 73 1019.2
20260509220511 50 360 1.7 4.3 0.00 0.00 0.00 73 1019.4
20260509220053 50 360 2.6 3.5 0.00 0.00 0.00 73 1019.3
20260509215514 50 360 1.7 3.5 0.00 0.00 0.00 72 1019.1
20260509215014 50 360 1.7 3.5 0.00 0.00 0.00 72 1019.0
20260509214532 50 360 1.7 3.5 0.00 0.00 0.00 71 1019.1
20260509214011 50 360 1.7 3.5 0.00 0.00 0.00 70 1018.9
20260509213511 50 360 1.7 3.5 0.00 0.00 0.00 69 1018.9
20260509213030 50 360 1.7 2.6 0.00 0.00 0.00 68 1019.0
20260509212512 51 360 0.9 2.6 0.00 0.00 0.00 68 1019.1
20260509212011 51 360 1.7 2.6 0.00 0.00 0.00 67 1018.9
20260509211530 51 360 0.9 2.6 0.00 0.00 0.00 66 1019.0
20260509211012 51 360 0.9 2.6 0.00 0.00 0.00 65 1019.0
20260509210513 52 360 0.9 2.6 0.00 0.00 0.00 65 1018.9
20260509210032 52 360 0.9 2.6 0.00 0.00 0.00 64 1018.9
20260509205511 52 360 0.9 2.6 0.00 0.00 0.00 63 1018.8
20260509205014 52 360 0.9 2.6 0.00 0.00 0.00 63 1018.8
20260509204528 53 360 0.9 3.5 0.00 0.00 0.00 62 1018.8
20260509204014 53 360 1.7 3.5 0.00 0.00 0.00 62 1018.7
20260509203513 53 360 1.7 3.5 0.00 0.00 0.00 61 1018.6
20260509203030 54 360 1.7 3.5 0.00 0.00 0.00 60 1018.6
20260509202512 54 360 1.7 4.3 0.00 0.00 0.00 59 1018.6
20260509202019 54 360 1.7 5.2 0.00 0.00 0.00 59 1018.5
20260509201529 54 360 1.7 5.2 0.00 0.00 0.00 58 1018.4
20260509201013 54 360 1.7 4.3 0.00 0.00 0.00 58 1018.4
20260509200512 55 360 1.7 4.3 0.00 0.00 0.00 57 1018.5
20260509200032 55 360 1.7 3.5 0.00 0.00 0.00 56 1018.4
20260509195516 56 360 0.9 2.6 0.00 0.00 0.00 55 1018.5
20260509195015 56 360 0.9 2.6 0.00 0.00 0.00 54 1018.4
20260509194530 57 360 0.9 3.5 0.00 0.00 0.00 53 1018.4
20260509194013 57 360 0.9 3.5 0.00 0.00 0.00 52 1018.5
20260509193513 58 360 0.9 4.3 0.00 0.00 0.00 51 1018.5
20260509193032 58 360 0.9 4.3 0.00 0.00 0.00 50 1018.4
20260509192513 59 360 0.9 5.2 0.00 0.00 0.00 50 1018.3
20260509192010 59 360 1.7 7.0 0.00 0.00 0.00 49 1018.2
20260509191531 59 360 0.9 7.0 0.00 0.00 0.00 48 1018.3
20260509191012 60 360 1.7 7.0 0.00 0.00 0.00 48 1018.1
20260509190511 60 360 1.7 7.8 0.00 0.00 0.00 47 1018.0
20260509190031 60 360 0.9 7.8 0.00 0.00 0.00 47 1018.0
20260509185512 61 77 2.6 7.8 0.00 0.00 0.00 46 1018.0
20260509185012 61 86 2.6 7.8 0.00 0.00 0.00 46 1018.0
20260509184529 62 5 2.6 7.8 0.00 0.00 0.00 45 1018.0
20260509184011 62 21 2.6 11.3 0.00 0.00 0.00 44 1018.0
20260509183512 63 89 2.6 11.3 0.00 0.00 0.00 44 1017.9
20260509183032 63 61 4.3 11.3 0.00 0.00 0.00 43 1017.8
20260509182512 64 65 0.9 9.6 0.00 0.00 0.00 44 1017.8
20260509182013 64 51 2.6 10.4 0.00 0.00 0.00 43 1017.8
20260509181534 64 29 3.5 10.4 0.00 0.00 0.00 43 1017.6
20260509181019 64 40 4.3 9.6 0.00 0.00 0.00 42 1017.6
20260509180511 64 79 3.5 9.6 0.00 0.00 0.00 43 1017.7
20260509180029 64 75 2.6 8.7 0.00 0.00 0.00 44 1017.6
20260509175512 64 78 2.6 8.7 0.00 0.00 0.00 44 1017.6
20260509175014 64 86 2.6 8.7 0.00 0.00 0.00 44 1017.5
20260509174531 64 94 3.5 8.7 0.00 0.00 0.00 43 1017.6
20260509174015 64 51 1.7 8.7 0.00 0.00 0.00 43 1017.5
20260509173511 64 61 2.6 9.6 0.00 0.00 0.00 42 1017.5
20260509173031 65 77 2.6 9.6 0.00 0.00 0.00 41 1017.7
20260509172516 65 71 1.7 7.8 0.00 0.00 0.00 42 1017.6
20260509172014 65 86 3.5 7.8 0.00 0.00 0.00 41 1017.6
20260509171538 66 150 2.6 7.8 0.00 0.00 0.00 40 1017.8
20260509171011 66 113 1.7 7.8 0.00 0.00 0.00 40 1017.8
20260509170512 66 122 2.6 7.8 0.00 0.00 0.00 40 1017.8
20260509170032 66 136 1.7 8.7 0.00 0.00 0.00 40 1017.7
20260509165513 66 112 4.3 8.7 0.00 0.00 0.00 39 1017.8
20260509165013 66 126 1.7 7.8 0.00 0.00 0.00 40 1017.7
20260509164531 66 109 3.5 9.6 0.00 0.00 0.00 39 1017.8
20260509164014 66 128 2.6 9.6 0.00 0.00 0.00 39 1017.8
20260509163515 66 123 3.5 8.7 0.00 0.00 0.00 39 1017.7
20260509163030 66 118 2.6 7.0 0.00 0.00 0.00 39 1017.8
20260509162511 66 127 3.5 9.6 0.00 0.00 0.00 39 1017.8
20260509162014 66 118 2.6 9.6 0.00 0.00 0.00 38 1017.8
20260509161530 66 103 5.2 9.6 0.00 0.00 0.00 38 1017.8
20260509161014 67 108 1.7 10.4 0.00 0.00 0.00 39 1017.9
20260509160514 67 131 4.3 10.4 0.00 0.00 0.00 38 1017.9
20260509160030 67 84 2.6 9.6 0.00 0.00 0.00 38 1017.8
20260509155513 68 105 2.6 9.6 0.00 0.00 0.00 38 1017.8
20260509155014 68 145 3.5 11.3 0.00 0.00 0.00 38 1017.8
20260509154529 68 98 3.5 11.3 0.00 0.00 0.00 37 1017.8
20260509154013 68 103 3.5 9.6 0.00 0.00 0.00 38 1017.7
20260509153515 69 96 4.3 10.4 0.00 0.00 0.00 37 1017.7